Satellite-Ground Cal/Val Site Overpasses Predictions

Prediction of Satellite NPP Overpassing Cal/Val Site: Antarctic Dome C

Ground Cal/Val Site Location: Latitude: -75.10, Longitude: 123.35; Satellite-Ground Site NADIR distance within 100 km.

Table of predicted overpasses for the next 14.0 days since TLE Epoch: 2/8/2013
Interval Starting Time Ending Time Minimum Distance Time Minimum Distance (km)
1 02/08/2013 14:59:31 02/08/2013 14:59:54 02/08/2013 14:59:43 59.34
2 02/09/2013 14:40:41 02/09/2013 14:41:06 02/09/2013 14:40:54 49.84
3 02/10/2013 07:42:23 02/10/2013 07:42:44 02/10/2013 07:42:34 69.90
4 02/11/2013 07:23:32 02/11/2013 07:23:59 02/11/2013 07:23:46 37.99
5 02/13/2013 15:06:01 02/13/2013 15:06:07 02/13/2013 15:06:04 97.43
6 02/14/2013 14:47:01 02/14/2013 14:47:30 02/14/2013 14:47:16 13.91
7 02/16/2013 07:29:52 02/16/2013 07:30:21 02/16/2013 07:30:07 1.60
8 02/19/2013 14:53:23 02/19/2013 14:53:51 02/19/2013 14:53:37 23.04
9 02/20/2013 14:34:41 02/20/2013 14:34:56 02/20/2013 14:34:48 83.96


NCC Satellite Cal/Val Overpasses Prediction Service
